Regional Weather Roundup
Issued by NWS

Home | Current Version | Previous Version | Graphics & Text | Print | Product List | Glossary On
Versions: 1 2 3 4 5 6 7 8 9 10 11 12 13 14 15 16 17 18 19 20 21 22 23 24 25 26 27 28 29 30 31 32 33 34 35 36 37 38 39 40 41 42 43 44 45 46 47 48 49 50
000
ASUS43 KTOP 121059
RWRKS

WEATHER ROUNDUP FOR KANSAS
NATIONAL WEATHER SERVICE GOODLAND KS
500 AM CST TUE DEC 12 2017

NOTE:  "FAIR" INDICATES FEW OR NO CLOUDS BELOW 12,000 FEET WITH NO
SIGNIFICANT WEATHER AND/OR OBSTRUCTIONS TO VISIBILITY.

KSZ001>006-013>018-027>032-041>047-121200-
NORTHWEST KANSAS

CITY           SKY/WX    TMP DP  RH WIND       PRES   REMARKS
GOODLAND       CLOUDY    21  10  62 W10       30.37F WCI  10
HAYS           PTCLDY    23  20  88 NW6       30.40
HILL CITY      CLOUDY    25  21  85 W7        30.40F
RUSSELL        CLOUDY    22  22 100 NW6       30.38F
$$

KSZ061>065-074>080-084>089-121200-
SOUTHWEST KANSAS

CITY           SKY/WX    TMP DP  RH WIND       PRES   REMARKS
DODGE CITY     CLOUDY    24  17  74 NW12      30.42F WCI  13
GARDEN CITY    CLOUDY    23  15  71 NW10      30.42F WCI  12
GREAT BEND     CLOUDY    22  19  89 W9        30.41F
LIBERAL        CLOUDY    20  12  71 W8        30.44F
$$

KSZ066>073-081>083-090>101-121200-
SOUTHEAST KANSAS

CITY           SKY/WX    TMP DP  RH WIND       PRES   REMARKS
CHANUTE        CLEAR     31  23  72 N8        30.34S
COFFEYVILLE    CLEAR     35  25  66 N13       30.36R WCI  26
HUTCHINSON     CLEAR     25  23  92 NW6       30.39S
MEDICINE LODGE   N/A     29  25  85 W3        30.41S
NEWTON         CLEAR     26  22  84 NW7       30.38S
PARSONS        CLEAR     31  25  78 N8        30.35R
WICHITA INTL   CLEAR     29  25  85 NW6       30.38F
WICHITA JABRA  CLEAR     28  24  85 N10       30.37F WCI  19
WICHITA MCCONL CLEAR     32  24  70 N10       30.37F WCI  24
WINFIELD       CLEAR     27  23  85 NW7       30.39R
$$

KSZ007>012-019>026-033>040-048>060-102>105-121200-
NORTHEAST KANSAS

CITY           SKY/WX    TMP DP  RH WIND       PRES   REMARKS
CONCORDIA      CLOUDY    26  22  84 NW5       30.37F
EMPORIA        CLEAR     28  20  71 NW9       30.34F
LAWRENCE       CLEAR     23  16  74 NW9       30.34F
MANHATTAN      CLEAR     29  21  72 VRB5      30.36F
OLATHE IND     CLEAR     25  17  72 NW12      30.33S WCI  14
OLATHE EXE     CLEAR     25  18  74 N15G21    30.31S WCI  13
SALINA         CLOUDY    28  23  81 CALM      30.40F
TOPEKA BILLARD CLEAR     25  18  74 NW9       30.36S
TOPEKA FORBES  CLEAR     27  16  63 N13       30.34S WCI  16
$$



USA.gov is the U.S. government's official web portal to all federal, state and local government web resources and services.